�������l�o���
Date,Time,MP-1(��Sv/h),MP-2(��Sv/h),MP-3(��Sv/h),MP-4(��Sv/h),MP-5(��Sv/h),MP-6(��Sv/h),MP-7(��Sv/h),MP-8(��Sv/h),����,����(m/s),���J
2023/03/06,00:00,0.572,0.837,0.507,1.064,0.742,0.325,0.586,0.556,��쐼,2.3,��
2023/03/06,00:10,0.572,0.838,0.506,1.063,0.743,0.324,0.586,0.556,��쐼,2.0,��
2023/03/06,00:20,0.573,0.836,0.505,1.065,0.740,0.325,0.586,0.555,��쐼,2.2,��
2023/03/06,00:30,0.572,0.834,0.507,1.062,0.742,0.324,0.587,0.557,��,2.5,��
2023/03/06,00:40,0.572,0.839,0.506,1.063,0.743,0.324,0.585,0.557,��,2.0,��
2023/03/06,00:50,0.574,0.836,0.505,1.065,0.743,0.325,0.585,0.557,��쐼,2.3,��
2023/03/06,01:00,0.573,0.836,0.506,1.065,0.741,0.324,0.584,0.558,��쐼,2.8,��
2023/03/06,01:10,0.573,0.837,0.507,1.062,0.741,0.324,0.586,0.556,��,2.9,��
2023/03/06,01:20,0.573,0.837,0.507,1.064,0.740,0.324,0.586,0.556,��,3.3,��
2023/03/06,01:30,0.573,0.836,0.507,1.064,0.742,0.324,0.586,0.555,��쐼,3.5,��
2023/03/06,01:40,0.572,0.837,0.506,1.062,0.741,0.325,0.586,0.558,��,3.6,��
2023/03/06,01:50,0.573,0.837,0.506,1.064,0.741,0.325,0.585,0.557,��,3.2,��
2023/03/06,02:00,0.574,0.834,0.506,1.062,0.743,0.326,0.587,0.558,��,2.9,��
2023/03/06,02:10,0.574,0.836,0.508,1.062,0.741,0.325,0.584,0.557,��쐼,2.9,��
2023/03/06,02:20,0.573,0.836,0.506,1.061,0.740,0.324,0.586,0.556,��,2.8,��
2023/03/06,02:30,0.572,0.836,0.506,1.063,0.740,0.324,0.585,0.556,��쐼,2.2,��
2023/03/06,02:40,0.572,0.837,0.507,1.065,0.742,0.325,0.584,0.556,��쐼,2.0,��
2023/03/06,02:50,0.573,0.836,0.506,1.063,0.742,0.325,0.585,0.559,��쐼,1.2,��
2023/03/06,03:00,0.573,0.836,0.507,1.064,0.742,0.325,0.586,0.557,��쐼,1.7,��
2023/03/06,03:10,0.574,0.837,0.506,1.064,0.742,0.323,0.585,0.556,�쐼,1.8,��
2023/03/06,03:20,0.573,0.835,0.506,1.064,0.740,0.324,0.584,0.557,��쐼,2.0,��
2023/03/06,03:30,0.573,0.836,0.505,1.065,0.740,0.324,0.586,0.557,��쐼,1.2,��
2023/03/06,03:40,0.574,0.834,0.507,1.063,0.742,0.325,0.584,0.557,��,2.0,��
2023/03/06,03:50,0.572,0.835,0.506,1.063,0.743,0.324,0.588,0.557,��,1.5,��
2023/03/06,04:00,0.572,0.836,0.507,1.066,0.740,0.325,0.586,0.557,��쐼,1.4,��
2023/03/06,04:10,0.574,0.837,0.505,1.063,0.741,0.323,0.586,0.557,��,0.9,��
2023/03/06,04:20,0.572,0.836,0.506,1.064,0.742,0.324,0.585,0.557,��쐼,1.1,��
2023/03/06,04:30,0.573,0.836,0.506,1.064,0.739,0.325,0.587,0.557,���쐼,0.9,��
2023/03/06,04:40,0.573,0.836,0.507,1.064,0.741,0.324,0.584,0.557,��쐼,0.9,��
2023/03/06,04:50,0.573,0.837,0.506,1.065,0.743,0.324,0.587,0.556,��,2.3,��
2023/03/06,05:00,0.573,0.835,0.508,1.066,0.742,0.325,0.587,0.557,��쐼,1.4,��
2023/03/06,05:10,0.572,0.836,0.507,1.065,0.742,0.325,0.584,0.558,-,CALM,��
2023/03/06,05:20,0.574,0.839,0.507,1.064,0.741,0.325,0.587,0.557,�k�k��,0.6,��
2023/03/06,05:30,0.573,0.838,0.507,1.066,0.742,0.324,0.586,0.557,�k�k��,0.6,��
2023/03/06,05:40,0.573,0.835,0.506,1.066,0.742,0.325,0.585,0.556,�k,0.9,��
2023/03/06,05:50,0.572,0.835,0.508,1.064,0.740,0.325,0.587,0.558,�k�k��,0.9,��
2023/03/06,06:00,0.574,0.838,0.508,1.064,0.742,0.326,0.586,0.558,�k��,1.2,��
2023/03/06,06:10,0.574,0.837,0.507,1.063,0.740,0.325,0.586,0.557,�k�k��,1.7,��
2023/03/06,06:20,0.573,0.838,0.507,1.064,0.740,0.324,0.586,0.556,�k�k��,1.9,��
2023/03/06,06:30,0.573,0.838,0.507,1.064,0.741,0.325,0.587,0.557,�k�k��,2.8,��
2023/03/06,06:40,0.573,0.839,0.505,1.064,0.741,0.325,0.587,0.557,�k�k��,3.0,��
2023/03/06,06:50,0.573,0.834,0.507,1.065,0.742,0.324,0.587,0.557,�k�k��,2.8,��
2023/03/06,07:00,0.573,0.839,0.508,1.064,0.742,0.324,0.587,0.558,�k�k��,3.0,��
2023/03/06,07:10,0.574,0.837,0.508,1.065,0.742,0.325,0.585,0.558,�k�k��,3.5,��
2023/03/06,07:20,0.575,0.836,0.507,1.066,0.742,0.324,0.586,0.558,�k�k��,3.6,�L
2023/03/06,07:30,0.574,0.835,0.508,1.065,0.741,0.324,0.587,0.557,�k�k��,3.1,�L
2023/03/06,07:40,0.575,0.836,0.508,1.066,0.743,0.325,0.587,0.555,�k�k��,3.4,�L
2023/03/06,07:50,0.574,0.837,0.507,1.064,0.742,0.324,0.586,0.557,�k�k��,4.7,�L
2023/03/06,08:00,0.574,0.837,0.507,1.064,0.741,0.324,0.588,0.557,�k��,4.3,�L
2023/03/06,08:10,0.574,0.837,0.507,1.066,0.741,0.325,0.586,0.557,�k�k��,3.9,�L
2023/03/06,08:20,0.574,0.837,0.507,1.066,0.741,0.324,0.587,0.559,�k��,4.4,�L
2023/03/06,08:30,0.575,0.836,0.509,1.065,0.741,0.324,0.585,0.558,�k��,4.6,�L
2023/03/06,08:40,0.574,0.837,0.507,1.066,0.740,0.326,0.587,0.557,�k��,3.6,��
2023/03/06,08:50,0.575,0.837,0.507,1.065,0.741,0.326,0.588,0.558,�k��,3.2,�L
2023/03/06,09:00,0.576,0.835,0.508,1.067,0.742,0.325,0.587,0.558,�k��,2.6,�L
2023/03/06,09:10,0.575,0.835,0.508,1.066,0.742,0.325,0.588,0.558,�k��,2.5,�L
2023/03/06,09:20,0.576,0.837,0.508,1.064,0.743,0.324,0.587,0.556,�k��,1.7,�L
2023/03/06,09:30,0.576,0.838,0.509,1.064,0.740,0.325,0.587,0.558,�k��,0.9,�L
2023/03/06,09:40,0.574,0.836,0.509,1.066,0.742,0.326,0.587,0.557,���쐼,1.1,�L
2023/03/06,09:50,0.576,0.837,0.508,1.067,0.742,0.327,0.587,0.558,���쐼,1.5,�L
2023/03/06,10:00,0.577,0.837,0.507,1.065,0.742,0.326,0.588,0.559,�쐼,2.3,�L
2023/03/06,10:10,0.576,0.836,0.507,1.066,0.744,0.326,0.587,0.558,�쐼,2.6,�L
2023/03/06,10:20,0.575,0.836,0.510,1.064,0.740,0.325,0.588,0.559,�쐼,2.2,�L
2023/03/06,10:30,0.576,0.838,0.509,1.064,0.740,0.327,0.585,0.559,��쐼,2.0,�L
2023/03/06,10:40,0.577,0.837,0.508,1.063,0.741,0.327,0.587,0.558,�쐼,2.0,�L
2023/03/06,10:50,0.576,0.837,0.508,1.064,0.739,0.324,0.584,0.557,�쐼,3.2,�L
2023/03/06,11:00,0.576,0.837,0.508,1.065,0.739,0.326,0.586,0.559,�쐼,3.5,�L
2023/03/06,11:10,0.575,0.835,0.507,1.065,0.740,0.324,0.585,0.557,��쐼,3.3,�L
2023/03/06,11:20,0.574,0.834,0.508,1.065,0.741,0.325,0.586,0.556,��쐼,3.8,�L
2023/03/06,11:30,0.576,0.833,0.508,1.064,0.742,0.326,0.586,-,��,4.3,�L
2023/03/06,11:40,0.577,0.835,0.509,1.065,0.741,0.326,0.586,-,��,5.1,�L
2023/03/06,11:50,0.577,0.837,0.508,1.064,0.741,0.327,0.586,-,��,3.7,�L
2023/03/06,12:00,0.577,0.835,0.510,1.064,0.742,0.326,0.586,-,��,3.8,�L
2023/03/06,12:10,0.577,0.837,0.510,1.065,0.740,0.325,0.586,-,�쓌,3.2,��
2023/03/06,12:20,0.577,0.836,0.510,1.066,0.740,0.324,0.585,-,�쓌,4.0,��
2023/03/06,12:30,0.576,0.835,0.509,1.065,0.740,0.325,0.587,-,�쓌,4.1,��
2023/03/06,12:40,0.575,0.835,0.507,1.067,0.741,0.324,0.586,0.559,�쓌,4.6,��
2023/03/06,12:50,0.572,0.834,0.507,1.066,0.739,0.326,0.587,0.556,��쓌,5.1,��
2023/03/06,13:00,0.575,0.836,0.505,1.065,0.741,0.327,0.586,0.556,�쓌,5.5,��
2023/03/06,13:10,0.573,0.835,0.507,1.065,0.738,0.325,0.586,0.556,��쓌,5.2,��
2023/03/06,13:20,0.575,0.834,0.507,1.066,0.738,0.326,0.585,0.556,��쓌,6.9,��
2023/03/06,13:30,0.575,0.833,0.507,1.065,0.739,0.325,0.587,0.556,��쓌,7.5,��
2023/03/06,13:40,0.575,0.832,0.507,1.066,0.740,0.326,0.587,0.555,��쓌,7.3,��
2023/03/06,13:50,0.575,0.834,0.507,1.063,0.740,0.325,0.588,0.555,��쓌,7.7,��
2023/03/06,14:00,0.573,0.833,0.506,1.066,0.738,0.325,0.587,0.555,��쓌,6.9,��
2023/03/06,14:10,0.574,0.833,0.507,1.065,0.741,0.324,0.586,0.555,��쓌,6.8,��
2023/03/06,14:20,0.573,0.833,0.507,1.067,0.740,0.324,0.586,0.555,��쓌,6.4,��
2023/03/06,14:30,0.575,0.834,0.509,1.065,0.741,0.325,0.587,0.555,��쓌,6.8,��
2023/03/06,14:40,0.574,0.834,0.509,1.065,0.739,0.325,0.586,0.556,��쓌,6.2,��
2023/03/06,14:50,0.576,0.835,0.509,1.067,0.739,0.326,0.587,0.555,��쓌,5.8,��
2023/03/06,15:00,0.576,0.837,0.509,1.066,0.739,0.325,0.586,0.555,��쓌,5.4,��
2023/03/06,15:10,0.575,0.836,0.508,1.065,0.738,0.326,0.587,0.554,��쓌,5.9,��
2023/03/06,15:20,0.575,0.837,0.511,1.066,0.738,0.325,0.587,0.555,��쓌,5.7,��
2023/03/06,15:30,0.577,0.835,0.508,1.065,0.741,0.326,0.587,0.554,��쓌,5.7,��
2023/03/06,15:40,0.575,0.836,0.510,1.065,0.739,0.325,0.586,0.555,��쓌,6.0,��
2023/03/06,15:50,0.576,0.836,0.510,1.066,0.737,0.326,0.586,0.554,��쓌,6.2,��
2023/03/06,16:00,0.575,0.837,0.510,1.064,0.740,0.326,0.586,0.555,��쓌,5.4,��
2023/03/06,16:10,0.576,0.837,0.510,1.066,0.740,0.326,0.586,0.555,��쓌,5.2,��
2023/03/06,16:20,0.577,0.836,0.507,1.066,0.739,0.327,0.587,0.556,��쓌,6.0,��
2023/03/06,16:30,0.576,0.838,0.509,1.065,0.742,0.326,0.586,0.556,��쓌,5.9,��
2023/03/06,16:40,0.577,0.838,0.510,1.066,0.741,0.326,0.587,0.557,��쓌,6.0,��
2023/03/06,16:50,0.577,0.838,0.510,1.064,0.739,0.325,0.585,0.556,��쓌,4.9,��
2023/03/06,17:00,0.577,0.839,0.509,1.065,0.741,0.325,0.587,0.558,��쓌,3.8,��
2023/03/06,17:10,0.577,0.836,0.510,1.063,0.741,0.327,0.586,0.558,��쓌,3.8,��
2023/03/06,17:20,0.578,0.838,0.511,1.066,0.740,0.325,0.586,0.557,��쓌,4.1,��
2023/03/06,17:30,0.578,0.837,0.510,1.065,0.739,0.326,0.587,0.560,��쓌,3.8,��
2023/03/06,17:40,0.576,0.837,0.512,1.063,0.741,0.325,0.588,0.558,��쓌,3.8,��
2023/03/06,17:50,0.577,0.838,0.510,1.065,0.743,0.324,0.588,0.559,��쓌,4.7,�L
2023/03/06,18:00,0.576,0.838,0.510,1.066,0.745,0.327,0.588,0.558,��,4.9,��
2023/03/06,18:10,0.578,0.839,0.509,1.065,0.741,0.326,0.589,0.559,��,4.5,��
2023/03/06,18:20,0.576,0.837,0.509,1.065,0.741,0.325,0.588,0.558,��,3.7,��
2023/03/06,18:30,0.577,0.838,0.508,1.065,0.742,0.325,0.587,0.558,��쐼,3.0,��
2023/03/06,18:40,0.577,0.837,0.509,1.064,0.741,0.326,0.587,0.558,��쐼,4.6,��
2023/03/06,18:50,0.575,0.840,0.509,1.063,0.742,0.326,0.588,0.558,��,5.0,��
2023/03/06,19:00,0.574,0.838,0.509,1.065,0.741,0.326,0.588,0.558,��,4.3,��
2023/03/06,19:10,0.575,0.837,0.510,1.066,0.740,0.325,0.589,0.557,��쐼,4.8,��
2023/03/06,19:20,0.577,0.839,0.509,1.064,0.741,0.325,0.588,0.558,��쐼,5.0,��
2023/03/06,19:30,0.575,0.839,0.509,1.065,0.742,0.325,0.587,0.557,��쐼,5.2,��
2023/03/06,19:40,0.575,0.837,0.509,1.064,0.741,0.325,0.589,0.558,��쐼,4.7,��
2023/03/06,19:50,0.575,0.838,0.510,1.063,0.741,0.327,0.589,0.557,��쐼,4.4,��
2023/03/06,20:00,0.576,0.837,0.509,1.066,0.743,0.326,0.587,0.558,��쐼,3.5,��
2023/03/06,20:10,0.575,0.837,0.507,1.064,0.742,0.327,0.586,0.556,���쐼,2.0,��
2023/03/06,20:20,0.576,0.836,0.508,1.067,0.742,0.326,0.587,0.558,�k��,2.6,��
2023/03/06,20:30,0.576,0.839,0.508,1.063,0.742,0.326,0.585,0.557,�k��,2.9,��
2023/03/06,20:40,0.574,0.837,0.508,1.065,0.744,0.327,0.586,0.557,�k��,2.6,��
2023/03/06,20:50,0.576,0.836,0.509,1.066,0.741,0.327,0.587,0.555,�k��,3.1,��
2023/03/06,21:00,0.576,0.837,0.508,1.066,0.742,0.327,0.587,0.557,�k��,3.1,��
2023/03/06,21:10,0.575,0.836,0.509,1.064,0.741,0.324,0.587,0.558,���k��,3.6,��
2023/03/06,21:20,0.575,0.838,0.509,1.066,0.742,0.327,0.587,0.558,���k��,3.8,��
2023/03/06,21:30,0.574,0.838,0.509,1.066,0.742,0.327,0.588,0.557,���k��,3.7,��
2023/03/06,21:40,0.575,0.837,0.508,1.065,0.742,0.325,0.587,0.559,���k��,3.6,��
2023/03/06,21:50,0.575,0.837,0.510,1.064,0.741,0.327,0.586,0.558,���k��,4.7,��
2023/03/06,22:00,0.576,0.837,0.509,1.067,0.742,0.326,0.587,0.557,���k��,5.4,��
2023/03/06,22:10,0.576,0.838,0.509,1.067,0.743,0.326,0.587,0.557,���k��,5.2,��
2023/03/06,22:20,0.576,0.837,0.509,1.066,0.740,0.326,0.587,0.559,���k��,6.2,��
2023/03/06,22:30,0.575,0.838,0.507,1.066,0.742,0.327,0.587,0.557,���k��,5.7,��
2023/03/06,22:40,0.576,0.838,0.509,1.065,0.739,0.325,0.588,0.559,�k��,6.2,��
2023/03/06,22:50,0.575,0.842,0.509,1.065,0.741,0.326,0.587,0.557,���k��,5.4,��
2023/03/06,23:00,0.575,0.839,0.509,1.064,0.741,0.325,0.587,0.558,���k��,5.1,��
2023/03/06,23:10,0.575,0.838,0.509,1.063,0.741,0.326,0.588,0.556,���k��,5.6,��
2023/03/06,23:20,0.575,0.838,0.510,1.065,0.741,0.326,0.587,0.558,�k��,6.8,��
2023/03/06,23:30,0.576,0.838,0.508,1.064,0.741,0.326,0.587,0.559,�k��,6.1,��
2023/03/06,23:40,0.575,0.838,0.510,1.065,0.742,0.325,0.587,0.556,�k��,5.7,��
2023/03/06,23:50,0.575,0.837,0.509,1.067,0.741,0.326,0.588,0.558,�k��,6.3,��
